Regional Weather Roundup
Issued by NWS

Home | Current Version | Previous Version | Text Only | Print | Product List | Glossary On
Versions: 1 2 3 4 5 6 7 8 9 10 11 12 13 14 15 16 17 18 19 20 21 22 23 24 25 26 27 28 29 30 31 32 33 34 35 36 37 38 39 40 41 42 43 44 45 46 47 48 49 50
000
ASUS46 KSTO 280815
RWRCA

NORTHERN AND CENTRAL CA REGIONAL WEATHER ROUNDUP
NATIONAL WEATHER SERVICE SACRAMENTO CA
100 AM PDT FRI APR 28 2017

NOTE: FAIR INDICATES FEW OR NO CLOUDS BELOW 12,000 FEET WITH NO
SIGNIFICANT WEATHER AND/OR OBSTRUCTIONS TO VISIBILITY.

CAZ001-003-280900-
NORTHWEST AREA

CITY           SKY/WX    TMP DP  RH WIND       PRES   REMARKS
CRESCENT CITY  CLEAR     47  42  83 NE6       30.23S
UKIAH          CLEAR     47  41  80 CALM      30.10R
$$

CAZ006-505>513-280900-
BAY AREA

CITY           SKY/WX    TMP DP  RH WIND       PRES   REMARKS
SANTA ROSA     CLEAR     53  41  63 N10       30.03R
SAN RAFAEL     N/A       52  MM  MM MISG
NAPA           CLEAR     51  43  74 CALM      30.02R
CONCORD        CLEAR     56  43  61 W7        30.02S
OAKLAND CITY   N/A      MM  MM  MM MISG
OAKLAND        CLEAR     57  44  62 NW8       30.03R
SAN FRAN CITY  N/A       MM  MM  MM MISG
SAN FRAN ARPT  PTCLDY    52  45  77 W16       30.04S
LIVERMORE      CLEAR     52  45  77 S6        30.02S
HAYWARD        CLEAR     55  44  66 W6        30.03S
REDWOOD CITY   N/A       54  MM  65 MISG
MOFFETT ARPT   CLEAR     54  42  64 NW3       30.05R
SAN JOSE ARPT  CLEAR     53  44  71 NW6       30.05R
$$
CAZ034-037-514>518-280900-
CENTRAL COAST

CITY           SKY/WX    TMP DP  RH WIND       PRES   REMARKS
WATSONVILLE    CLEAR     50  46  86 E5        30.03R FOG
SALINAS        CLEAR     53  45  74 SW13      30.04R
MONTEREY       PTCLDY    53  46  77 W8        30.06R
SAN LUIS OBISP CLEAR     53  44  71 NW12      29.95S
SANTA MARIA    CLEAR     49  46  90 W10       29.94S
$$
CAZ015-016-280900-
NORTHERN SACRAMENTO VALLEY

CITY           SKY/WX    TMP DP  RH WIND       PRES   REMARKS
REDDING        CLEAR     51  37  58 NW6       30.06R
RED BLUFF      CLEAR     55  37  50 NW13      30.05R
OROVILLE       CLEAR     54  40  59 NW9       30.00R
$$
CAZ016>018-280900-
SOUTHERN SACRAMENTO VALLEY

CITY           SKY/WX    TMP DP  RH WIND       PRES   REMARKS
AUBURN         CLEAR     46  39  76 CALM      29.99R
BEALE AFB      CLEAR     56  43  61 N8        29.96S
LINCOLN        FAIR      46  41  81 NE5       29.97R
MARYSVILLE     CLEAR     58  40  51 N15G25    29.98R
SAC INTL ARPT  CLEAR     56  43  61 N10       29.98R
MATHER AIRPORT NOT AVBL
DOWNTOWN SAC   N/A       62  MM  MM MISG
SAC EXEC ARPT  CLEAR     57  44  62 NW7       29.98S
VACAVILLE      CLEAR     59  42  53 N6        30.00R
TRAVIS AFB     CLEAR     49  45  87 S6        29.98R
$$
CAZ019>021-280900-
SAN JOAQUIN VALLEY

CITY           SKY/WX    TMP DP  RH WIND       PRES   REMARKS
STOCKTON       CLEAR     53  46  77 W8        29.98R
MODESTO        CLEAR     58  44  60 NW10      29.96S
MERCED         CLEAR     56  43  61 N14       29.94S
LEMOORE        CLEAR     51  31  46 NW10      29.94R
FRESNO         PTCLDY    58  45  62 NW12      29.92R
HANFORD        CLEAR     59  34  39 NW14      29.93R
PORTERVILLE      N/A     55  42  61 CALM      29.93S
BAKERSFIELD    CLEAR     57  37  47 CALM      29.92S
$$
CAZ011-012-071-280900-
NORTHERN MOUNTAINS

CITY           SKY/WX    TMP DP  RH WIND       PRES   REMARKS
YREKA          CLEAR     37  32  82 NE12      30.18R WCI  29
MOUNT SHASTA   CLEAR     40  28  62 NW8       30.11R WCI  34
ALTURAS        CLEAR     34  29  82 W5        30.10R WCI  30
$$
CAZ011-012-071-280900-
SIERRA NEVADA MTNS

CITY           SKY/WX    TMP DP  RH WIND       PRES   REMARKS
BLUE CANYON    CLEAR     41  26  55 NE3       30.04S
TRUCKEE        MOCLDY    34  28  80 N6        30.06R WCI  29
TAHOE VLY ARPT PTCLDY    33  26  75 SW3       30.03S
MAMMOTH LAKES  FAIR      36  18  47 W10       30.00F WCI  29
$$




USA.gov is the U.S. government's official web portal to all federal, state and local government web resources and services.